User: anonymous   Login
Location: Unspecified
(0.0000°N, 0.0000°E)
Time: 12:58:46
(UTC+00:00)
Language:

MERIDIAN 7 - Orbit

View from above orbital plane
View from above orbital plane
View from above satellite
View from above satellite

Ground track
Ground track

The orbit data is extracted from the following two-line orbital elements,

1 40296U 14069A   17351.42232336  .00000251  00000-0  00000+0 0  9990
2 40296  62.8299 222.5665 6877491 275.1131 177.6658  2.00615991 22961
Epoch (UTC): 17 December 2017 10:08:08
Eccentricity: 0.6877491
inclination: 62.8299°
perigee height: 1914 km
apogee height: 38441 km
right ascension of ascending node: 222.5665°
argument of perigee: 275.1131°
revolutions per day: 2.00615991
mean anomaly at epoch: 177.6658°
orbit number at epoch: 2296

The dashed part of the orbit path shows where the satellite is in the earth's shadow,  

DLR